Miscellaneous Local Product
Issued by NWS Hastings, NE

Home | Current Version | Previous Version | Text Only | Print | Product List | Glossary Off
Versions: 1 2 3 4 5 6 7 8 9 10 11 12 13 14 15 16 17 18 19 20 21 22 23 24 25 26 27 28 29 30 31 32 33 34 35 36 37 38 39 40 41 42 43 44 45 46 47 48 49 50

000
AXUS43 KGID 230902
MISGRI

GID CWA HOURLY WEATHER ROUNDUP
NATIONAL WEATHER SERVICE HASTINGS NE
400 AM CDT MON APR 23 2018

NOTE: "FAIR" INDICATES FEW OR NO CLOUDS BELOW 12,000 FEET WITH NO
SIGNIFICANT WEATHER AND/OR OBSTRUCTIONS TO VISIBILITY.

...SOUTH CENTRAL NEBRASKA...

CITY           SKY/WX    TMP DP  RH WIND       PRES   REMARKS
GRAND ISLAND   CLOUDY    48  41  76 CALM      30.17S
KEARNEY        CLOUDY    47  41  80 NW6       30.17S
HASTINGS       CLOUDY    49  43  80 NE5       30.16S
ORD            CLEAR     35  32  88 CALM      30.16S
YORK             N/A     45  32  61 CALM      30.17S
AURORA         CLOUDY    46  33  62 E6        30.16F
LEXINGTON      CLEAR     36  34  91 CALM      30.17S
HOLDREGE       CLOUDY    40  36  87 NW3       30.16S
HEBRON         CLEAR     41  36  80 CALM      30.15S

...NEBRASKA PANHANDLE...

CITY           SKY/WX    TMP DP  RH WIND       PRES   REMARKS
CHADRON        CLEAR     44  37  76 SW7       30.09S
ALLIANCE       CLEAR     33  33 100 SE7       30.11F WCI  27
SCOTTSBLUFF    CLEAR     37  36  96 E9        30.10F WCI  30
SIDNEY         CLEAR     35  32  88 S7        30.12F WCI  29

...WESTERN AND NORTH CENTRAL NEBRASKA...

CITY           SKY/WX    TMP DP  RH WIND       PRES   REMARKS
VALENTINE      CLEAR     39  36  89 SW9       30.14F WCI  33
AINSWORTH      CLEAR     37  36  95 S6        30.15F WCI  32
ONEILL         CLEAR     43  36  77 S5        30.17S
BROKEN BOW     PTCLDY    33  31  92 CALM      30.16F
IMPERIAL       CLEAR     37  34  89 CALM      30.16F
NORTH PLATTE   CLEAR     33  30  88 CALM      30.17F FOG
MCCOOK         CLEAR     35  33  92 W5        30.16F WCI  31

...EASTERN NEBRASKA...

CITY           SKY/WX    TMP DP  RH WIND       PRES   REMARKS
NORFOLK        CLEAR     40  33  76 CALM      30.17S
SO SIOUX CITY  CLEAR     39  36  89 CALM      30.19S
TEKAMAH        CLEAR     33  31  92 N8        30.19R WCI  26
COLUMBUS       CLEAR     39  30  70 E3        30.18S
ALBION         CLOUDY    51  36  55 CALM      30.18S
OMAHA EPPLEY   CLEAR     42  31  64 N5        30.17S
OFFUTT AFB     CLEAR     45  26  48 N1        30.16S
MILLARD        CLEAR     46  30  54 CALM      30.17S
LINCOLN        CLEAR     42  31  64 N7        30.18R
NEBRASKA CITY  MOCLDY    46  31  55 N5        30.16S
BEATRICE       CLEAR     46  34  62 E6        30.16R
FALLS CITY     PTCLDY    45  34  65 N5        30.13S

...NORTHERN KANSAS...

CITY           SKY/WX    TMP DP  RH WIND       PRES   REMARKS
GOODLAND       CLEAR     35  32  88 SW6       30.16S WCI  30
HILL CITY      PTCLDY    36  34  92 W5        30.17S WCI  32
NORTON         MOSUNNY   37  34  87 SW5       30.16R WCI  34
PHILLIPSBURG   MOCLDY    46  39  76 W7        30.16S
SMITH CENTER   PTCLDY    48  43  81 N6        30.16S
BELOIT         CLEAR     43  39  87 CALM      30.15R
HAYS           CLOUDY    49  41  74 NW7       30.15S
RUSSELL        CLOUDY    50  44  80 NW7       30.12F
CONCORDIA      CLEAR     44  38  79 NW5       30.14R
SALINA         PTCLDY    45  41  86 NW7       30.13S
TOPEKA         MOCLDY    52  41  66 N6        30.09F



USA.gov is the U.S. government's official web portal to all federal, state and local government web resources and services.